Date String (YYYY-MM-DD hh:mm:ss) UTC,Instrument flags,absolute air pressure of the measurement (hPa),sample flow rate (lpm),inlet stack bypass flow (lpm),air temperature of the measurement (°C),ambient temperature measured by the external sensor (°C),aerosol sample conditioner tube jacket temperature (°C),OPC LED temperature (°C),internal box temperature (°C),relative humidity of the measurement (%),span deviation,mass concentration of particles derived from Lorenz-Mie calculation of OPC scattering (μg/m³),mass concentration of particles derived from Lorenz-Mie calculation of OPC scattering (μg/m³),mass concentration of particles derived from Lorenz-Mie calculation of OPC scattering (μg/m³)
DateTimeUTC,F1_M11,P_M11,Q1_M11,Q2_M11,T1_M11,T2_M11,T3_M11,T4_M11,T5_M11,U1_M11,ZSPAN_M11,X0_M11,X2_M11,X1_M11
2023-11-11 20:00:00,SystemResetWarning,0830.3,5.01,000.00,026.2,025.5,000.0,034.3,027.8,5.9,0000.0,0004.06,0002.49,0001.78
2023-11-11 20:01:00,SystemResetWarning,0830.3,5.00,000.00,026.2,025.6,000.0,034.3,027.8,6.0,0000.0,0004.21,0002.58,0001.80
2023-11-11 20:02:00,SystemResetWarning,0830.3,4.99,000.00,026.2,025.6,000.0,034.3,027.8,5.9,0000.0,0004.45,0002.61,0001.82
2023-11-11 20:03:00,SystemResetWarning,0830.3,4.99,000.00,026.3,025.6,000.0,034.4,027.9,5.9,0000.0,0004.83,0002.62,0001.82
2023-11-11 20:04:00,SystemResetWarning,0830.3,4.99,000.00,026.3,025.6,000.0,034.4,027.9,6.0,0000.0,0004.97,0002.66,0001.83
2023-11-11 20:05:00,SystemResetWarning,0830.3,5.00,000.00,026.3,025.7,000.0,034.4,027.9,6.1,0000.0,0004.84,0002.65,0001.84
2023-11-11 20:06:00,SystemResetWarning,0830.3,5.00,000.00,026.4,025.7,000.0,034.4,027.9,6.0,0000.0,0004.88,0002.67,0001.84
2023-11-11 20:07:00,SystemResetWarning,0830.3,5.01,000.00,026.4,025.7,000.0,034.5,028.0,6.0,0000.0,0005.01,0002.72,0001.83
2023-11-11 20:08:00,SystemResetWarning,0830.3,5.00,000.00,026.4,025.7,000.0,034.5,028.0,5.9,0000.0,0004.90,0002.71,0001.82
2023-11-11 20:09:00,SystemResetWarning,0830.3,5.00,000.00,026.4,025.8,000.0,034.5,028.0,6.1,0000.0,0004.90,0002.71,0001.82
2023-11-11 20:10:00,SystemResetWarning,0830.3,5.01,000.00,026.5,025.8,000.0,034.5,028.0,6.0,0000.0,0004.92,0002.70,0001.83
2023-11-11 20:11:00,SystemResetWarning,0830.3,4.99,000.00,026.5,025.8,000.0,034.6,028.1,5.9,0000.0,0005.00,0002.69,0001.83
2023-11-11 20:12:00,SystemResetWarning,0830.3,4.99,000.00,026.5,025.9,000.0,034.6,028.1,5.9,0000.0,0004.93,0002.65,0001.84
2023-11-11 20:13:00,SystemResetWarning,0830.3,4.99,000.00,026.5,025.9,000.0,034.6,028.1,5.9,0000.0,0005.09,0002.62,0001.84
2023-11-11 20:14:00,SystemResetWarning,0830.3,5.00,000.00,026.6,025.9,000.0,034.6,028.1,5.8,0000.0,0005.80,0002.65,0001.84
2023-11-11 20:15:00,SystemResetWarning,0830.3,5.00,000.00,026.6,026.0,000.0,034.6,028.2,5.8,0000.0,0005.83,0002.60,0001.83
2023-11-11 20:16:00,SystemResetWarning,0830.3,5.00,000.00,026.6,026.0,000.0,034.7,028.2,5.9,0000.0,0005.69,0002.54,0001.82
2023-11-11 20:17:00,SystemResetWarning,0830.3,5.00,000.00,026.6,026.0,000.0,034.7,028.2,5.8,0000.0,0005.59,0002.50,0001.83
2023-11-11 20:18:00,SystemResetWarning,0830.2,5.01,000.00,026.7,026.0,000.0,034.7,028.2,5.8,0000.0,0005.54,0002.44,0001.82
2023-11-11 20:19:00,SystemResetWarning,0830.2,5.01,000.00,026.7,026.0,000.0,034.7,028.2,5.7,0000.0,0005.70,0002.44,0001.82
2023-11-11 20:20:00,SystemResetWarning,0830.2,5.00,000.00,026.7,026.1,000.0,034.8,028.2,5.8,0000.0,0005.63,0002.44,0001.82
2023-11-11 20:21:00,SystemResetWarning,0830.2,5.00,000.00,026.7,026.1,000.0,034.8,028.3,5.7,0000.0,0005.62,0002.44,0001.82
2023-11-11 20:22:00,SystemResetWarning,0830.2,4.99,000.00,026.8,026.1,000.0,034.8,028.3,5.7,0000.0,0005.87,0002.41,0001.80
2023-11-11 20:23:00,SystemResetWarning,0830.2,5.00,000.00,026.8,026.1,000.0,034.8,028.4,5.6,0000.0,0006.16,0002.41,0001.78
2023-11-11 20:24:00,SystemResetWarning,0830.2,4.99,000.00,026.8,026.2,000.0,034.9,028.4,5.5,0000.0,0006.17,0002.45,0001.76
2023-11-11 20:25:00,SystemResetWarning,0830.3,5.00,000.00,026.8,026.2,000.0,034.9,028.4,5.6,0000.0,0005.02,0002.47,0001.76
2023-11-11 20:26:00,SystemResetWarning,0830.2,5.01,000.00,026.9,026.2,000.0,034.9,028.4,5.5,0000.0,0004.90,0002.52,0001.77
2023-11-11 20:27:00,SystemResetWarning,0830.3,5.01,000.00,026.9,026.2,000.0,034.9,028.4,5.5,0000.0,0005.07,0002.56,0001.76
2023-11-11 20:28:00,SystemResetWarning,0830.3,5.00,000.00,026.9,026.2,000.0,035.0,028.4,5.5,0000.0,0005.25,0002.55,0001.73
2023-11-11 20:29:00,SystemResetWarning,0830.3,5.00,000.00,026.9,026.2,000.0,035.0,028.4,5.5,0000.0,0005.28,0002.56,0001.72
2023-11-11 20:30:00,SystemResetWarning,0830.3,5.00,000.00,026.9,026.3,000.0,035.0,028.4,5.7,0000.0,0005.17,0002.60,0001.73
2023-11-11 20:31:00,SystemResetWarning,0830.3,4.99,000.00,027.0,026.3,000.0,035.0,028.5,5.6,0000.0,0005.12,0002.57,0001.73
2023-11-11 20:32:00,SystemResetWarning,0830.3,5.00,000.00,027.0,026.3,000.0,035.1,028.5,5.5,0000.0,0005.09,0002.52,0001.71
2023-11-11 20:33:00,SystemResetWarning,0830.3,5.01,000.00,027.0,026.3,000.0,035.1,028.6,5.5,0000.0,0004.90,0002.51,0001.70
2023-11-11 20:34:00,SystemResetWarning,0830.3,5.00,000.00,027.0,026.4,000.0,035.1,028.6,5.5,0000.0,0004.44,0002.46,0001.68
2023-11-11 20:35:00,SystemResetWarning,0830.3,5.00,000.00,027.1,026.4,000.0,035.1,028.6,5.6,0000.0,0004.21,0002.36,0001.65
2023-11-11 20:36:00,SystemResetWarning,0830.3,5.00,000.00,027.1,026.4,000.0,035.2,028.6,5.5,0000.0,0004.16,0002.30,0001.64
2023-11-11 20:37:00,SystemResetWarning,0830.3,5.00,000.00,027.1,026.5,000.0,035.2,028.6,5.5,0000.0,0004.17,0002.32,0001.63
2023-11-11 20:38:00,SystemResetWarning,0830.3,5.00,000.00,027.1,026.5,000.0,035.2,028.7,5.6,0000.0,0004.23,0002.34,0001.63
2023-11-11 20:39:00,SystemResetWarning,0830.3,5.00,000.00,027.2,026.5,000.0,035.2,028.7,5.6,0000.0,0004.18,0002.36,0001.64
2023-11-11 20:40:00,SystemResetWarning,0830.3,5.00,000.00,027.2,026.5,000.0,035.3,028.7,5.7,0000.0,0004.23,0002.35,0001.64
2023-11-11 20:41:00,SystemResetWarning,0830.3,5.00,000.00,027.2,026.6,000.0,035.3,028.7,5.7,0000.0,0004.03,0002.27,0001.62
2023-11-11 20:42:00,SystemResetWarning,0830.2,5.00,000.00,027.2,026.6,000.0,035.3,028.8,5.7,0000.0,0004.17,0002.30,0001.61
2023-11-11 20:43:00,SystemResetWarning,0830.1,5.00,000.00,027.3,026.6,000.0,035.3,028.7,5.7,0000.0,0004.18,0002.32,0001.62
2023-11-11 20:44:00,SystemResetWarning,0830.2,5.01,000.00,027.3,026.6,000.0,035.3,028.8,5.6,0000.0,0004.21,0002.35,0001.64
2023-11-11 20:45:00,SystemResetWarning,0830.2,5.00,000.00,027.3,026.6,000.0,035.4,028.8,5.7,0000.0,0004.34,0002.39,0001.64
2023-11-11 20:46:00,SystemResetWarning,0830.1,5.00,000.00,027.3,026.6,000.0,035.4,028.8,5.8,0000.0,0004.47,0002.43,0001.65
2023-11-11 20:47:00,SystemResetWarning,0830.1,4.99,000.00,027.3,026.6,000.0,035.4,028.8,5.8,0000.0,0004.46,0002.44,0001.63
2023-11-11 20:48:00,SystemResetWarning,0830.1,4.99,000.00,027.3,026.6,000.0,035.4,028.8,5.7,0000.0,0004.35,0002.40,0001.63
2023-11-11 20:49:00,SystemResetWarning,0830.1,5.01,000.00,027.4,026.6,000.0,035.5,028.8,5.6,0000.0,0004.11,0002.31,0001.62
2023-11-11 20:50:00,SystemResetWarning,0830.1,5.01,000.00,027.4,026.6,000.0,035.5,028.8,5.5,0000.0,0004.06,0002.26,0001.62
2023-11-11 20:51:00,SystemResetWarning,0830.1,5.01,000.00,027.4,026.6,000.0,035.5,028.8,5.5,0000.0,0004.89,0002.28,0001.61
2023-11-11 20:52:00,SystemResetWarning,0830.1,5.00,000.00,027.4,026.6,000.0,035.5,028.8,5.5,0000.0,0005.04,0002.28,0001.60
2023-11-11 20:53:00,SystemResetWarning,0830.1,5.00,000.00,027.4,026.6,000.0,035.5,028.8,5.5,0000.0,0004.96,0002.26,0001.60
2023-11-11 20:54:00,SystemResetWarning,0830.1,4.98,000.00,027.4,026.6,000.0,035.5,028.8,5.5,0000.0,0005.60,0002.25,0001.59
2023-11-11 20:55:00,SystemResetWarning,0830.1,5.00,000.00,027.4,026.6,000.0,035.6,028.8,5.4,0000.0,0005.79,0002.21,0001.57
2023-11-11 20:56:00,SystemResetWarning,0830.1,5.01,000.00,027.4,026.5,000.0,035.6,028.8,5.5,0000.0,0005.75,0002.19,0001.57
2023-11-11 20:57:00,SystemResetWarning,0830.1,5.00,000.00,027.4,026.5,000.0,035.6,028.8,5.3,0000.0,0005.72,0002.19,0001.58
2023-11-11 20:58:00,SystemResetWarning,0830.1,4.99,000.00,027.4,026.5,000.0,035.6,028.8,5.3,0000.0,0005.69,0002.20,0001.59
2023-11-11 20:59:00,SystemResetWarning,0830.1,5.00,000.00,027.4,026.5,000.0,035.6,028.8,5.2,0000.0,0005.80,0002.16,0001.58
